RYR29H LROP-LBSF

Flight info

Callsign RYR29H
Flight time 0h 38m
Altitude 34000
Route POLUN DCT GAPVO
Aircraft B738/M-SDE2E3FGHIRWXY/LB1

Departure

Time 2026-04-30 11:04
Airport Bucharest Henri Coandă International Airport (LROP)

Arrival

Time 2026-04-30 11:43
Airport Sofia Airport (LBSF)
Time Latitude Longitude Altitude Speed Heading
2026-04-30 10:42 44.56895 26.08984 320 ft 0 kts 174°
2026-04-30 10:57 44.56915 26.08982 320 ft 4 kts 182°
2026-04-30 10:57 44.56941 26.08989 320 ft 4 kts 210°
2026-04-30 10:58 44.56954 26.09011 320 ft 2 kts 263°
2026-04-30 10:58 44.56955 26.09012 320 ft 1 kts 264°
2026-04-30 11:01 44.56953 26.08991 318 ft 5 kts 264°
2026-04-30 11:01 44.56946 26.08905 320 ft 12 kts 264°
2026-04-30 11:02 44.56935 26.08752 320 ft 19 kts 264°
2026-04-30 11:02 44.56904 26.08575 320 ft 19 kts 220°
2026-04-30 11:02 44.56776 26.08569 319 ft 18 kts 174°
2026-04-30 11:02 44.56687 26.08583 320 ft 12 kts 173°
2026-04-30 11:03 44.56632 26.08596 320 ft 12 kts 162°
2026-04-30 11:03 44.56566 26.08665 321 ft 13 kts 135°
2026-04-30 11:03 44.56550 26.08802 319 ft 18 kts 85°
2026-04-30 11:04 44.56665 26.10359 369 ft 147 kts 81°
2026-04-30 11:04 44.56758 26.11819 1425 ft 144 kts 81°
2026-04-30 11:04 44.56873 26.13249 2365 ft 150 kts 83°
2026-04-30 11:04 44.56981 26.14687 3353 ft 150 kts 86°
2026-04-30 11:05 44.57110 26.16251 3947 ft 174 kts 86°
2026-04-30 11:05 44.57263 26.18097 4279 ft 211 kts 85°
2026-04-30 11:05 44.57449 26.20277 4543 ft 240 kts 86°
2026-04-30 11:05 44.57655 26.22693 5001 ft 260 kts 85°
2026-04-30 11:06 44.57883 26.25329 5486 ft 280 kts 85°
2026-04-30 11:06 44.57782 26.28049 6434 ft 281 kts 108°
2026-04-30 11:06 44.56932 26.30519 7323 ft 284 kts 129°
2026-04-30 11:06 44.55632 26.32620 8213 ft 288 kts 136°
2026-04-30 11:07 44.53992 26.34182 9119 ft 286 kts 166°
2026-04-30 11:07 44.52041 26.34669 10054 ft 287 kts 178°
2026-04-30 11:07 44.50015 26.34857 10756 ft 300 kts 180°
2026-04-30 11:07 44.47829 26.35037 10985 ft 329 kts 179°
2026-04-30 11:08 44.45502 26.35298 11401 ft 348 kts 178°
2026-04-30 11:08 44.43068 26.35628 12148 ft 354 kts 177°
2026-04-30 11:08 44.40602 26.35774 13008 ft 354 kts 190°
2026-04-30 11:08 44.38295 26.34729 13907 ft 348 kts 213°
2026-04-30 11:09 44.36457 26.32586 14763 ft 344 kts 233°
2026-04-30 11:09 44.35227 26.29762 15608 ft 339 kts 251°
2026-04-30 11:09 44.34503 26.26631 16464 ft 339 kts 256°
2026-04-30 11:09 44.33861 26.23449 17331 ft 340 kts 257°
2026-04-30 11:10 44.33234 26.20255 18202 ft 341 kts 257°
2026-04-30 11:10 44.32601 26.17050 18996 ft 343 kts 257°
2026-04-30 11:10 44.31955 26.13828 19648 ft 346 kts 257°
2026-04-30 11:10 44.31292 26.10569 20299 ft 350 kts 257°
2026-04-30 11:11 44.30618 26.07288 20945 ft 353 kts 257°
2026-04-30 11:11 44.29945 26.04031 21574 ft 356 kts 257°
2026-04-30 11:11 44.29252 26.00695 22197 ft 359 kts 257°
2026-04-30 11:11 44.28551 25.97328 22802 ft 363 kts 257°
2026-04-30 11:12 44.27842 25.93932 23397 ft 366 kts 257°
2026-04-30 11:12 44.27126 25.90507 23966 ft 369 kts 257°
2026-04-30 11:12 44.26405 25.87061 24487 ft 371 kts 257°
2026-04-30 11:12 44.25679 25.83599 25045 ft 372 kts 257°
2026-04-30 11:13 44.24951 25.80135 25584 ft 373 kts 257°
2026-04-30 11:13 44.24266 25.76647 26088 ft 373 kts 262°
2026-04-30 11:13 44.24068 25.73061 26562 ft 371 kts 271°
2026-04-30 11:13 44.24067 25.69462 27082 ft 372 kts 272°
2026-04-30 11:14 44.24067 25.65850 27571 ft 373 kts 271°
2026-04-30 11:14 44.24059 25.62218 28058 ft 375 kts 271°
2026-04-30 11:14 44.24041 25.58580 28524 ft 376 kts 271°
2026-04-30 11:14 44.24016 25.54924 28971 ft 377 kts 271°
2026-04-30 11:15 44.23987 25.51264 29501 ft 377 kts 271°
2026-04-30 11:15 44.23954 25.47635 30206 ft 372 kts 271°
2026-04-30 11:15 44.23921 25.44057 30837 ft 367 kts 271°
2026-04-30 11:15 44.23888 25.40549 31282 ft 366 kts 271°
2026-04-30 11:16 44.23855 25.36995 31650 ft 367 kts 271°
2026-04-30 11:16 44.23819 25.33423 32079 ft 367 kts 272°
2026-04-30 11:16 44.23750 25.29876 32546 ft 367 kts 267°
2026-04-30 11:16 44.23109 25.26407 32980 ft 375 kts 253°
2026-04-30 11:17 44.21842 25.23192 33413 ft 383 kts 243°
2026-04-30 11:17 44.20120 25.20296 33805 ft 394 kts 232°
2026-04-30 11:17 44.17862 25.17988 34169 ft 411 kts 219°
2026-04-30 11:18 44.12702 25.14241 34420 ft 423 kts 216°
2026-04-30 11:18 44.07418 25.10640 35084 ft 421 kts 215°
2026-04-30 11:18 44.04785 25.08828 35256 ft 423 kts 215°
2026-04-30 11:19 43.99500 25.05133 35251 ft 430 kts 216°
2026-04-30 11:19 43.94182 25.01394 35245 ft 426 kts 216°
2026-04-30 11:20 43.88908 24.97683 35243 ft 423 kts 216°
2026-04-30 11:20 43.86267 24.95821 34848 ft 430 kts 216°
2026-04-30 11:20 43.83601 24.93944 34426 ft 428 kts 216°
2026-04-30 11:21 43.80962 24.92094 33947 ft 423 kts 216°
2026-04-30 11:21 43.78376 24.90285 33462 ft 420 kts 216°
2026-04-30 11:21 43.75763 24.88453 32984 ft 423 kts 216°
2026-04-30 11:21 43.73126 24.86602 32346 ft 427 kts 216°
2026-04-30 11:22 43.70468 24.84736 31706 ft 430 kts 216°
2026-04-30 11:22 43.67792 24.82864 31074 ft 431 kts 215°
2026-04-30 11:22 43.65108 24.80992 30459 ft 431 kts 215°
2026-04-30 11:22 43.62426 24.79125 29769 ft 430 kts 215°
2026-04-30 11:23 43.59761 24.77272 29060 ft 429 kts 214°
2026-04-30 11:23 43.57100 24.75423 28368 ft 428 kts 214°
2026-04-30 11:23 43.51741 24.71695 27066 ft 437 kts 214°
2026-04-30 11:24 43.49009 24.69794 26432 ft 441 kts 213°
2026-04-30 11:24 43.46298 24.67915 25809 ft 442 kts 213°
2026-04-30 11:24 43.43553 24.66018 25201 ft 441 kts 213°
2026-04-30 11:25 43.38093 24.62252 24007 ft 433 kts 212°
2026-04-30 11:25 43.35420 24.60414 23343 ft 426 kts 212°
2026-04-30 11:25 43.30180 24.56807 22008 ft 418 kts 212°
2026-04-30 11:26 43.25013 24.53250 20723 ft 412 kts 212°
2026-04-30 11:26 43.22454 24.51490 20097 ft 410 kts 212°
2026-04-30 11:26 43.19915 24.49747 19487 ft 407 kts 211°
2026-04-30 11:27 43.17428 24.48041 18909 ft 403 kts 211°
2026-04-30 11:27 43.14932 24.46331 18275 ft 400 kts 211°
2026-04-30 11:27 43.12455 24.44637 17603 ft 396 kts 211°
2026-04-30 11:27 43.10004 24.42961 16941 ft 392 kts 211°
2026-04-30 11:28 43.05170 24.39661 15673 ft 384 kts 210°
2026-04-30 11:28 43.02786 24.38035 15047 ft 380 kts 210°
2026-04-30 11:28 43.00435 24.36433 14421 ft 376 kts 210°
2026-04-30 11:29 42.98102 24.34845 13798 ft 372 kts 210°
2026-04-30 11:29 42.95791 24.33272 13274 ft 367 kts 210°
2026-04-30 11:29 42.91247 24.30184 12334 ft 365 kts 210°
2026-04-30 11:30 42.86725 24.27118 11470 ft 361 kts 209°
2026-04-30 11:30 42.84506 24.25617 11002 ft 352 kts 209°
2026-04-30 11:30 42.82340 24.24151 10564 ft 341 kts 209°
2026-04-30 11:31 42.80262 24.22744 10130 ft 327 kts 210°
2026-04-30 11:31 42.78291 24.21414 10024 ft 304 kts 209°
2026-04-30 11:31 42.76461 24.20179 9979 ft 283 kts 209°
2026-04-30 11:31 42.74722 24.19006 9988 ft 278 kts 210°
2026-04-30 11:32 42.72997 24.17838 9979 ft 277 kts 210°
2026-04-30 11:32 42.71270 24.16671 9985 ft 276 kts 209°
2026-04-30 11:32 42.69588 24.15448 9970 ft 272 kts 219°
2026-04-30 11:33 42.67766 24.11192 9988 ft 266 kts 260°
2026-04-30 11:33 42.67474 24.08700 9948 ft 270 kts 261°
2026-04-30 11:33 42.67190 24.06138 9562 ft 278 kts 261°
2026-04-30 11:33 42.66894 24.03530 9190 ft 279 kts 261°
2026-04-30 11:34 42.66593 24.00938 8826 ft 277 kts 261°
2026-04-30 11:34 42.66289 23.98354 8455 ft 276 kts 262°
2026-04-30 11:34 42.66180 23.95797 8108 ft 273 kts 273°
2026-04-30 11:34 42.66346 23.93262 7743 ft 267 kts 276°
2026-04-30 11:35 42.66541 23.90781 7385 ft 261 kts 277°
2026-04-30 11:35 42.66722 23.88348 7037 ft 256 kts 277°
2026-04-30 11:35 42.66893 23.85968 6696 ft 251 kts 277°
2026-04-30 11:35 42.67050 23.83634 6322 ft 245 kts 277°
2026-04-30 11:36 42.67198 23.81347 6037 ft 237 kts 277°
2026-04-30 11:36 42.67334 23.79193 5985 ft 221 kts 277°
2026-04-30 11:36 42.67461 23.77198 5975 ft 203 kts 278°
2026-04-30 11:36 42.67578 23.75324 6018 ft 195 kts 278°
2026-04-30 11:37 42.67696 23.73462 5649 ft 204 kts 278°
2026-04-30 11:37 42.67814 23.71558 5365 ft 201 kts 278°
2026-04-30 11:37 42.67926 23.69712 5119 ft 192 kts 278°
2026-04-30 11:37 42.68034 23.67941 4900 ft 183 kts 279°
2026-04-30 11:38 42.68134 23.66288 4683 ft 173 kts 278°
2026-04-30 11:38 42.68233 23.64680 4497 ft 169 kts 279°
2026-04-30 11:38 42.68332 23.63093 4322 ft 167 kts 279°
2026-04-30 11:38 42.68435 23.61540 4147 ft 163 kts 279°
2026-04-30 11:39 42.68540 23.60027 3951 ft 158 kts 280°
2026-04-30 11:39 42.68634 23.58538 3811 ft 155 kts 278°
2026-04-30 11:39 42.68719 23.57116 3696 ft 145 kts 279°
2026-04-30 11:39 42.68800 23.55778 3464 ft 138 kts 278°
2026-04-30 11:40 42.68874 23.54516 3287 ft 131 kts 279°
2026-04-30 11:40 42.68948 23.53280 3125 ft 130 kts 279°
2026-04-30 11:40 42.69022 23.52058 2946 ft 128 kts 278°
2026-04-30 11:40 42.69095 23.50848 2792 ft 129 kts 279°
2026-04-30 11:41 42.69166 23.49642 2608 ft 127 kts 278°
2026-04-30 11:41 42.69238 23.48469 2465 ft 123 kts 278°
2026-04-30 11:41 42.69303 23.47279 2323 ft 130 kts 278°
2026-04-30 11:41 42.69379 23.46056 2136 ft 130 kts 279°
2026-04-30 11:42 42.69458 23.44830 1923 ft 129 kts 279°
2026-04-30 11:42 42.69529 23.43634 1760 ft 126 kts 279°
2026-04-30 11:42 42.69609 23.42475 1744 ft 118 kts 277°
2026-04-30 11:42 42.69653 23.41653 1747 ft 62 kts 274°
2026-04-30 11:43 42.69686 23.41115 1749 ft 44 kts 273°
2026-04-30 11:43 42.69667 23.40907 1743 ft 13 kts 257°
2026-04-30 11:43 42.69636 23.40793 1748 ft 13 kts 243°
2026-04-30 11:43 42.69609 23.40717 1747 ft 5 kts 244°
2026-04-30 11:44 42.69593 23.40675 1747 ft 5 kts 244°
2026-04-30 11:44 42.69575 23.40624 1748 ft 9 kts 244°
2026-04-30 11:44 42.69544 23.40571 1744 ft 1 kts 180°
2026-04-30 11:44 42.69530 23.40591 1742 ft 5 kts 111°
2026-04-30 11:45 42.69522 23.40677 1740 ft 13 kts 94°
2026-04-30 11:45 42.69513 23.40827 1748 ft 17 kts 95°
2026-04-30 11:45 42.69503 23.40981 1748 ft 16 kts 95°
2026-04-30 11:45 42.69495 23.41126 1749 ft 15 kts 94°
2026-04-30 11:46 42.69478 23.41194 1742 ft 4 kts 146°
2026-04-30 11:46 42.69451 23.41205 1749 ft 4 kts 170°
2026-04-30 11:46 42.69424 23.41203 1749 ft 4 kts 190°
2026-04-30 11:46 42.69386 23.41194 1749 ft 9 kts 190°
2026-04-30 11:47 42.69300 23.41169 1746 ft 16 kts 194°
2026-04-30 11:47 42.69178 23.41131 1749 ft 18 kts 192°
2026-04-30 11:47 42.69108 23.41008 1746 ft 17 kts 252°
2026-04-30 11:47 42.69073 23.40898 1749 ft 7 kts 212°
2026-04-30 11:48 42.69025 23.40908 1744 ft 7 kts 162°
2026-04-30 11:48 42.69000 23.40918 1745 ft 2 kts 162°
2026-04-30 11:48 42.68994 23.40921 1747 ft 0 kts 162°